Location: Newark
(37.9717°N, 99.9089°W)
Time: 06:51:38
(UTC+00:00)

ISS - Pass Details

Date: 28 July 2019
Orbit: 410 x 421 km, 51.6° (Epoch: 23 August)

Event Time Altitude Azimuth Distance (km) Brightness Sun altitude
Rises 05:13:41 0° 317° (NW) 2,369 1.1 -29.0°
Reaches altitude 10° 05:15:59 10° 329° (NNW) 1,500 0.0 -29.2°
Enters shadow 05:17:02 17° 342° (NNW) 1,158 -0.8 -29.3°
